GW4866 Weather Reports


time (UTC)temp
F
wind
direction
speed
knots
gust
knots
rain 1hr
in
rain 24hr
in
rain mn
in
humidity
%
barometer
mb
20260505231004 34 313 0.9 3.5 0.01 0.18 0.15 95 1009.4
20260505230504 34 302 0.0 2.6 0.02 0.18 0.15 95 1009.3
20260505230004 34 308 0.9 3.5 0.02 0.18 0.15 95 1009.1
20260505225504 34 312 0.9 3.5 0.02 0.18 0.15 95 1009.9
20260505224504 34 302 0.9 2.6 0.02 0.18 0.15 95 1009.7
20260505224004 34 302 0.0 3.5 0.01 0.17 0.14 95 1009.7
20260505223504 34 295 0.0 3.5 0.02 0.17 0.14 95 1009.6
20260505223004 34 298 0.9 2.6 0.02 0.17 0.14 95 1009.5
20260505222504 34 299 0.9 3.5 0.02 0.17 0.14 95 1009.4
20260505222004 34 304 0.9 3.5 0.02 0.17 0.14 95 1009.4
20260505221504 34 303 0.9 4.3 0.02 0.17 0.14 95 1009.4
20260505221004 34 295 0.9 4.3 0.01 0.16 0.13 95 1009.4
20260505220504 34 303 0.9 3.5 0.01 0.16 0.13 95 1009.4
20260505220004 34 311 0.9 3.5 0.01 0.16 0.13 95 1009.5
20260505215504 34 307 0.9 3.5 0.01 0.16 0.13 95 1009.9
20260505215004 34 308 0.0 3.5 0.01 0.16 0.13 95 1010.0
20260505214504 34 310 0.9 2.6 0.01 0.16 0.13 95 1010.1
20260505214005 34 303 0.9 4.3 0.01 0.16 0.13 95 1010.1
20260505213504 34 307 0.9 4.3 0.00 0.15 0.12 94 1010.0
20260505213004 34 317 0.0 3.5 0.00 0.15 0.12 94 1010.1
20260505212505 35 309 0.0 3.5 0.00 0.15 0.12 94 1010.0
20260505211505 35 298 0.0 3.5 0.00 0.15 0.12 95 1010.3
20260505210004 35 310 0.9 3.5 0.01 0.15 0.12 95 1010.0
20260505205004 35 303 0.9 4.3 0.01 0.15 0.12 94 1010.6
20260505204504 35 311 0.9 3.5 0.01 0.15 0.12 94 1010.6
20260505204004 35 314 0.9 3.5 0.01 0.15 0.12 95 1010.5
20260505203505 35 312 0.9 5.2 0.01 0.15 0.12 94 1010.6
20260505203004 35 309 0.9 5.2 0.01 0.15 0.12 94 1010.3
20260505202505 35 298 0.9 5.2 0.02 0.15 0.12 94 1010.4
20260505201504 35 308 0.9 4.3 0.02 0.15 0.12 94 1010.5
20260505201003 35 300 0.9 2.6 0.01 0.14 0.11 94 1010.6
20260505200504 35 297 0.9 5.2 0.01 0.14 0.11 94 1010.6
20260505195504 35 317 0.9 6.1 0.02 0.14 0.11 93 1010.8
20260505195004 36 317 0.9 3.5 0.02 0.14 0.11 94 1010.9
20260505194504 36 302 0.9 4.3 0.02 0.14 0.11 94 1011.0
20260505194004 36 298 0.9 4.3 0.02 0.14 0.11 93 1011.0
20260505193504 36 300 0.9 4.3 0.02 0.14 0.11 94 1011.0
20260505193004 36 298 0.9 3.5 0.02 0.14 0.11 94 1011.0
20260505192504 36 294 0.9 2.6 0.01 0.13 0.10 94 1010.8
20260505191504 36 302 0.9 3.5 0.01 0.13 0.10 94 1010.6
20260505190504 36 303 0.9 4.3 0.02 0.13 0.10 94 1010.4
20260505190004 36 301 0.9 4.3 0.03 0.13 0.10 94 1010.5
20260505185504 36 304 0.9 4.3 0.03 0.12 0.09 94 1011.4
20260505185004 36 327 0.9 3.5 0.03 0.12 0.09 94 1011.4
20260505184504 36 305 0.9 3.5 0.03 0.12 0.09 94 1011.4
20260505184004 36 296 0.9 5.2 0.04 0.12 0.09 94 1011.4
20260505183504 36 320 0.9 5.2 0.04 0.12 0.09 94 1011.5
20260505183005 36 112 0.9 3.5 0.04 0.12 0.09 94 1011.5
20260505182504 36 104 0.9 3.5 0.05 0.12 0.09 94 1011.5
20260505182004 36 358 0.9 3.5 0.05 0.12 0.09 93 1011.5
20260505181504 36 292 0.9 3.5 0.05 0.12 0.09 93 1011.6
20260505181004 36 297 0.9 4.3 0.05 0.11 0.08 93 1011.7
20260505180504 36 307 0.9 4.3 0.05 0.11 0.08 92 1011.6
20260505180004 36 99 0.9 2.6 0.04 0.10 0.07 93 1011.5
20260505175504 36 26 0.0 2.6 0.04 0.09 0.06 93 1012.0
20260505174504 35 168 0.0 3.5 0.04 0.09 0.06 92 1012.0
20260505174004 35 151 0.0 3.5 0.03 0.08 0.05 92 1012.0
20260505173504 35 147 0.0 3.5 0.03 0.08 0.05 92 1012.0
20260505173004 35 155 0.0 1.7 0.03 0.08 0.05 91 1012.2
20260505172504 35 159 0.9 1.7 0.02 0.07 0.04 91 1012.1
20260505172004 35 170 0.0 1.7 0.02 0.07 0.04 91 1012.3
20260505171004 35 211 0.0 0.9 0.02 0.06 0.03 91 1012.2
20260505170504 35 212 0.0 1.7 0.02 0.06 0.03 91 1012.1
20260505165504 35 185 0.0 1.7 0.01 0.05 0.02 91 1012.4
20260505165004 35 188 0.0 2.6 0.01 0.05 0.02 91 1012.5
20260505164504 35 189 0.0 2.6 0.01 0.05 0.02 91 1012.4
20260505164004 35 187 0.0 2.6 0.01 0.05 0.02 91 1012.3
20260505163504 35 198 0.0 2.6 0.01 0.05 0.02 91 1012.3
20260505163004 35 210 0.0 1.7 0.01 0.05 0.02 91 1012.2
20260505162504 35 198 0.0 1.7 0.02 0.05 0.02 91 1012.3
20260505162005 35 199 0.0 0.9 0.02 0.05 0.02 90 1012.4
20260505161504 35 218 0.0 0.9 0.01 0.04 0.01 91 1012.5
20260505161004 35 193 0.0 1.7 0.01 0.04 0.01 91 1012.4
20260505153004 36 195 0.0 1.7 0.01 0.04 0.01 90 1012.7
20260505152504 36 220 0.0 1.7 0.00 0.03 0.00 90 1012.7
20260505152004 36 213 0.0 1.7 0.00 0.03 0.00 90 1012.7
20260505151504 36 195 0.0 1.7 0.00 0.03 0.00 90 1012.6
20260505150504 36 183 0.0 1.7 0.00 0.03 0.00 90 1012.7
20260505140504 39 70 0.9 2.6 0.00 0.03 0.00 87 1012.6
20260505125004 40 286 0.0 0.9 0.00 0.03 0.00 85 1012.0
20260505124504 40 286 0.0 1.7 0.00 0.03 0.00 85 1011.9
20260505124004 40 295 0.9 2.6 0.00 0.03 0.00 85 1011.8
20260505123004 40 296 0.9 3.5 0.00 0.03 0.00 85 1011.7
20260505122505 40 300 0.9 3.5 0.00 0.03 0.00 83 1011.4
20260505122004 40 302 0.0 2.6 0.00 0.03 0.00 82 1011.2
20260505121504 40 291 0.0 1.7 0.00 0.03 0.00 82 1011.1
20260505121004 40 288 0.0 1.7 0.00 0.03 0.00 82 1011.1
20260505120504 41 66 0.0 1.7 0.00 0.03 0.00 81 1011.2
20260505120005 41 98 0.0 1.7 0.00 0.03 0.00 81 1011.2
20260505115504 41 95 0.0 1.7 0.00 0.03 0.00 81 1011.1
20260505115004 41 90 0.0 1.7 0.00 0.03 0.00 82 1011.3
20260505114504 41 309 0.0 1.7 0.00 0.03 0.00 83 1011.2
20260505114004 41 312 0.0 1.7 0.00 0.03 0.00 82 1011.2
20260505113504 41 315 0.0 0.9 0.00 0.03 0.00 83 1011.1
20260505113004 41 336 0.0 0.9 0.00 0.03 0.00 82 1011.1
20260505112504 41 32 0.0 0.9 0.00 0.03 0.00 82 1010.9
20260505112004 41 194 0.0 0.9 0.00 0.03 0.00 82 1010.9
20260505111504 41 301 0.0 0.9 0.00 0.03 0.00 83 1010.9
20260505111004 41 307 0.0 0.9 0.00 0.03 0.00 84 1011.2
20260505110504 41 295 0.0 0.9 0.00 0.03 0.00 86 1011.2
20260505102004 41 0 0.0 0.0 0.00 0.03 0.00 90 1011.0
20260505101504 40 0 0.0 0.0 0.00 0.03 0.00 90 1011.0
20260505101004 40 0 0.0 0.0 0.00 0.03 0.00 89 1010.8
20260505100504 40 0 0.0 0.0 0.00 0.03 0.00 89 1010.9
20260505100004 40 0 0.0 0.0 0.00 0.03 0.00 89 1010.8
20260505095504 41 0 0.0 0.0 0.00 0.03 0.00 89 1010.7
20260505095004 41 0 0.0 0.0 0.00 0.03 0.00 88 1010.8
20260505094504 41 0 0.0 0.0 0.00 0.03 0.00 88 1010.7
20260505094004 41 0 0.0 0.0 0.00 0.03 0.00 88 1010.7
20260505093504 41 0 0.0 0.0 0.00 0.03 0.00 88 1010.5
20260505092504 41 0 0.0 0.0 0.00 0.03 0.00 88 1010.3
20260505092004 41 0 0.0 0.0 0.00 0.03 0.00 88 1010.4
20260505091504 41 305 0.0 0.9 0.00 0.03 0.00 88 1010.6
20260505091004 41 294 0.0 1.7 0.00 0.03 0.00 88 1010.5
20260505090504 42 291 0.0 1.7 0.00 0.03 0.00 88 1010.4
20260505090004 42 292 0.0 1.7 0.00 0.03 0.00 89 1010.3
20260505085004 42 0 0.0 0.0 0.00 0.03 0.00 91 1011.3
20260505084504 42 0 0.0 0.0 0.00 0.03 0.00 91 1011.5
20260505084004 42 0 0.0 0.0 0.00 0.03 0.00 91 1011.6
20260505083004 42 0 0.0 0.0 0.00 0.03 0.00 92 1011.5
20260505082504 42 0 0.0 0.0 0.00 0.03 0.00 92 1011.6
20260505082004 42 0 0.0 0.0 0.00 0.03 0.00 91 1011.8
20260505081504 42 0 0.0 0.0 0.00 0.03 0.00 91 1011.8
20260505081004 42 0 0.0 0.0 0.00 0.03 0.00 91 1011.6
20260505080504 42 0 0.0 0.0 0.00 0.03 0.00 91 1011.7
20260505080004 42 0 0.0 0.0 0.00 0.03 0.00 91 1011.7
20260505075504 42 0 0.0 0.0 0.00 0.03 0.00 92 1011.8
20260505075003 42 0 0.0 0.0 0.00 0.03 0.00 91 1011.8
20260505074504 42 0 0.0 0.0 0.00 0.03 0.00 91 1011.8
20260505074004 42 0 0.0 0.0 0.00 0.03 0.00 91 1011.9
20260505073504 42 0 0.0 0.0 0.00 0.03 0.00 91 1011.9
20260505072504 42 0 0.0 0.0 0.00 0.03 0.00 91 1012.0
20260505072004 42 0 0.0 0.0 0.00 0.03 0.00 91 1012.0
20260505071504 42 0 0.0 0.0 0.00 0.03 0.00 90 1011.9
20260505071004 42 215 0.0 0.9 0.00 0.03 0.00 90 1011.9
20260505070510 42 215 0.0 0.9 0.00 0.03 0.00 90 1012.0
20260505070005 42 215 0.0 0.9 0.00 0.03 0.00 90 1012.1
20260505065503 42 216 0.0 0.9 0.00 0.03 0.00 90 1012.1
20260505065004 42 217 0.0 0.9 0.00 0.03 0.00 90 1012.0
20260505064503 43 217 0.0 0.9 0.01 0.03 0.00 89 1012.0
20260505063004 43 0 0.0 0.0 0.01 0.03 0.00 89 1012.2
20260505062503 43 168 0.0 0.9 0.01 0.03 0.00 88 1012.0
20260505062004 43 153 0.0 1.7 0.01 0.03 0.00 88 1011.8
20260505061504 43 152 0.0 1.7 0.01 0.03 0.00 88 1011.9
20260505061004 43 210 0.0 0.9 0.01 0.03 0.00 87 1011.9
20260505060504 43 209 0.0 0.9 0.01 0.03 0.00 86 1012.0
20260505060009 43 0 0.0 0.0 0.01 0.03 0.00 86 1012.3
20260505055504 43 198 0.0 1.7 0.01 0.03 0.03 85 1012.3
20260505055005 44 198 0.0 1.7 0.01 0.03 0.03 84 1012.2
20260505054504 44 0 0.0 0.0 0.00 0.02 0.02 83 1012.2
20260505054004 44 141 0.0 1.7 0.00 0.02 0.02 82 1012.2
20260505053504 44 162 0.0 2.6 0.00 0.02 0.02 81 1012.2
20260505053004 44 169 0.0 2.6 0.00 0.02 0.02 79 1012.0
20260505052503 44 0 0.0 0.0 0.00 0.02 0.02 79 1012.2
20260505052004 45 0 0.0 0.0 0.00 0.02 0.02 78 1012.3
20260505051505 45 0 0.0 0.0 0.00 0.02 0.02 77 1012.1
20260505050504 45 0 0.0 0.0 0.00 0.02 0.02 76 1012.1
20260505041005 45 199 0.9 4.3 0.00 0.02 0.02 77 1011.1
20260505040504 45 202 0.9 4.3 0.00 0.02 0.02 77 1011.2
20260505040005 45 187 0.9 4.3 0.00 0.02 0.02 78 1011.3
20260505035004 45 165 1.7 4.3 0.00 0.02 0.02 77 1011.1
20260505034004 45 187 0.9 5.2 0.00 0.02 0.02 77 1011.4
20260505033503 45 193 0.0 4.3 0.00 0.02 0.02 77 1011.4
20260505033004 45 195 0.0 1.7 0.00 0.02 0.02 77 1011.4
20260505032504 45 187 0.0 1.7 0.00 0.02 0.02 77 1011.3
20260505032004 45 193 0.9 6.1 0.00 0.02 0.02 77 1011.1
20260505031504 46 191 2.6 6.1 0.00 0.02 0.02 76 1011.0
20260505031005 46 196 1.7 6.1 0.00 0.02 0.02 76 1010.9
20260505030504 45 205 1.7 4.3 0.00 0.02 0.02 77 1010.9
20260505030004 45 198 1.7 7.0 0.00 0.02 0.02 77 1011.0
20260505025505 45 190 0.9 7.0 0.00 0.02 0.02 77 1011.0
20260505024004 45 212 0.0 3.5 0.01 0.02 0.02 80 1011.1
20260505023504 45 214 0.0 3.5 0.01 0.02 0.02 80 1011.0
20260505022503 45 185 0.0 2.6 0.02 0.02 0.02 80 1010.9
20260505021503 45 201 0.0 1.7 0.02 0.02 0.02 79 1010.7
20260505021004 45 173 0.0 2.6 0.02 0.02 0.02 79 1010.8
20260505020504 45 148 0.9 2.6 0.02 0.02 0.02 78 1011.0
20260505020004 45 157 1.7 4.3 0.02 0.02 0.02 78 1010.9
20260505015505 46 164 3.5 7.8 0.02 0.02 0.02 77 1011.2
20260505014504 48 183 1.7 7.8 0.02 0.02 0.02 71 1011.2
20260505013504 50 183 0.9 7.8 0.01 0.01 0.01 61 1011.0
20260505012504 51 182 0.9 4.3 0.00 0.00 0.00 60 1011.0
20260505012004 52 163 1.7 6.1 0.00 0.00 0.00 59 1011.2
20260505011504 52 169 0.9 6.1 0.00 0.00 0.00 54 1011.1
20260505010004 54 159 0.9 3.5 0.00 0.00 0.00 45 1010.2
20260505005504 54 168 0.0 3.5 0.00 0.00 0.00 44 1010.5
20260505005004 54 170 0.0 2.6 0.00 0.00 0.00 43 1010.2
20260505004504 55 173 1.7 7.0 0.00 0.00 0.00 43 1009.8
20260505004003 55 174 1.7 8.7 0.00 0.00 0.00 42 1009.8
20260505003503 55 181 2.6 8.7 0.00 0.00 0.00 41 1009.6
20260505003004 56 182 3.5 7.0 0.00 0.00 0.00 40 1009.4
20260505002504 56 186 3.5 9.6 0.00 0.00 0.00 39 1009.2
20260505002004 56 184 3.5 9.6 0.00 0.00 0.00 38 1009.0
20260505001504 57 171 4.3 10.4 0.00 0.00 0.00 37 1008.8
20260505001004 58 165 4.3 10.4 0.00 0.00 0.00 37 1008.9
20260505000504 58 165 3.5 9.6 0.00 0.00 0.00 36 1008.7
20260504235504 60 185 2.6 9.6 0.00 0.00 0.00 33 1008.8
20260504235004 61 186 2.6 8.7 0.00 0.00 0.00 33 1008.8
20260504234505 61 191 1.7 7.0 0.00 0.00 0.00 33 1008.7
20260504234004 61 185 2.6 7.0 0.00 0.00 0.00 33 1008.9
20260504233504 61 181 3.5 7.8 0.00 0.00 0.00 34 1008.8
20260504233004 62 170 3.5 7.8 0.00 0.00 0.00 33 1008.8
20260504232504 62 160 2.6 7.0 0.00 0.00 0.00 32 1008.9
20260504232003 63 176 0.9 5.2 0.00 0.00 0.00 31 1008.7
20260504231504 63 183 0.9 3.5 0.00 0.00 0.00 32 1008.7